�������l�o���
Date,Time,MP-1(��Sv/h),MP-2(��Sv/h),MP-3(��Sv/h),MP-4(��Sv/h),MP-5(��Sv/h),MP-6(��Sv/h),MP-7(��Sv/h),MP-8(��Sv/h),����,����(m/s),���J
2017/10/26,00:00,0.890,1.413,0.893,1.705,1.140,0.495,0.903,0.841,�k,8.5,��
2017/10/26,00:10,0.889,1.413,0.894,1.705,1.138,0.496,0.904,0.840,�k,8.8,��
2017/10/26,00:20,0.889,1.414,0.894,1.702,1.140,0.495,0.905,0.840,�k,8.2,��
2017/10/26,00:30,0.891,1.412,0.895,1.704,1.139,0.494,0.905,0.839,�k,8.0,��
2017/10/26,00:40,0.889,1.413,0.892,1.704,1.137,0.496,0.903,0.839,�k,7.6,��
2017/10/26,00:50,0.889,1.414,0.894,1.705,1.140,0.495,0.904,0.839,�k�k��,8.1,��
2017/10/26,01:00,0.890,1.415,0.894,1.708,1.140,0.493,0.903,0.839,�k�k��,8.3,��
2017/10/26,01:10,0.890,1.415,0.892,1.703,1.138,0.496,0.904,0.837,�k�k��,8.7,��
2017/10/26,01:20,0.888,1.415,0.892,1.704,1.140,0.495,0.902,0.839,�k�k��,7.8,��
2017/10/26,01:30,0.889,1.414,0.894,1.704,1.143,0.496,0.903,0.839,�k,8.4,��
2017/10/26,01:40,0.889,1.415,0.893,1.705,1.139,0.495,0.905,0.837,�k�k��,8.5,��
2017/10/26,01:50,0.891,1.414,0.892,1.704,1.140,0.496,0.904,0.840,�k�k��,8.2,��
2017/10/26,02:00,0.889,1.413,0.894,1.706,1.142,0.494,0.904,0.838,�k,8.2,��
2017/10/26,02:10,0.888,1.415,0.891,1.702,1.140,0.493,0.905,0.840,�k,8.0,��
2017/10/26,02:20,0.889,1.411,0.894,1.704,1.140,0.493,0.905,0.839,�k�k��,8.2,��
2017/10/26,02:30,0.891,1.413,0.893,1.703,1.140,0.497,0.905,0.837,�k�k��,7.2,��
2017/10/26,02:40,0.889,1.413,0.891,1.706,1.141,0.495,0.904,0.839,�k�k��,7.5,��
2017/10/26,02:50,0.888,1.411,0.893,1.706,1.140,0.495,0.902,0.838,�k�k��,8.1,��
2017/10/26,03:00,0.889,1.413,0.893,1.704,1.140,0.496,0.903,0.840,�k�k��,7.0,��
2017/10/26,03:10,0.889,1.414,0.893,1.704,1.141,0.493,0.904,0.839,�k�k��,6.1,��
2017/10/26,03:20,0.889,1.414,0.891,1.704,1.141,0.495,0.902,0.838,�k�k��,5.3,��
2017/10/26,03:30,0.888,1.413,0.892,1.702,1.140,0.495,0.901,0.838,�k�k��,6.9,��
2017/10/26,03:40,0.889,1.413,0.892,1.702,1.141,0.495,0.904,0.839,�k�k��,6.9,��
2017/10/26,03:50,0.888,1.412,0.894,1.706,1.141,0.495,0.904,0.840,�k�k��,7.5,��
2017/10/26,04:00,0.890,1.414,0.892,1.703,1.138,0.494,0.904,0.840,�k�k��,7.4,��
2017/10/26,04:10,0.890,1.410,0.892,1.704,1.139,0.495,0.902,0.840,�k�k��,8.0,��
2017/10/26,04:20,0.887,1.412,0.893,1.707,1.138,0.496,0.902,0.840,�k�k��,8.1,��
2017/10/26,04:30,0.888,1.415,0.892,1.703,1.139,0.493,0.904,0.839,�k�k��,7.5,��
2017/10/26,04:40,0.888,1.413,0.892,1.703,1.141,0.494,0.902,0.839,�k�k��,7.4,��
2017/10/26,04:50,0.889,1.411,0.895,1.703,1.137,0.494,0.903,0.841,�k�k��,7.8,��
2017/10/26,05:00,0.890,1.413,0.893,1.703,1.140,0.494,0.904,0.840,�k�k��,7.6,��
2017/10/26,05:10,0.889,1.414,0.893,1.704,1.142,0.494,0.902,0.839,�k�k��,7.6,��
2017/10/26,05:20,0.889,1.411,0.892,1.705,1.140,0.493,0.904,0.840,�k�k��,7.6,��
2017/10/26,05:30,0.886,1.412,0.891,1.704,1.141,0.494,0.903,0.840,�k�k��,6.6,��
2017/10/26,05:40,0.889,1.412,0.892,1.705,1.140,0.495,0.903,0.840,�k�k��,5.1,��
2017/10/26,05:50,0.889,1.414,0.892,1.704,1.141,0.495,0.902,0.840,�k�k��,5.0,��
2017/10/26,06:00,0.887,1.411,0.893,1.704,1.140,0.495,0.903,0.840,�k�k��,4.4,��
2017/10/26,06:10,0.887,1.412,0.893,1.703,1.142,0.495,0.903,0.839,�k�k��,5.3,��
2017/10/26,06:20,0.888,1.412,0.892,1.702,1.143,0.495,0.902,0.840,�k��,6.3,��
2017/10/26,06:30,0.887,1.412,0.893,1.703,1.140,0.494,0.903,0.839,�k��,7.1,��
2017/10/26,06:40,0.888,1.412,0.893,1.704,1.142,0.496,0.902,0.839,�k��,6.7,��
2017/10/26,06:50,0.888,1.409,0.891,1.703,1.143,0.495,0.905,0.840,�k��,7.3,��
2017/10/26,07:00,0.891,1.412,0.892,1.702,1.138,0.496,0.903,0.839,�k��,7.9,��
2017/10/26,07:10,0.887,1.410,0.892,1.706,1.139,0.495,0.904,0.838,�k��,7.1,��
2017/10/26,07:20,0.888,1.413,0.895,1.703,1.143,0.495,0.904,0.840,�k��,6.6,��
2017/10/26,07:30,0.891,1.413,0.894,1.705,1.141,0.495,0.906,0.840,�k��,6.2,��
2017/10/26,07:40,0.892,1.411,0.894,1.705,1.141,0.497,0.903,0.842,�k��,5.8,��
2017/10/26,07:50,0.892,1.419,0.894,1.702,1.141,0.496,0.904,0.841,�k��,5.9,��
2017/10/26,08:00,0.892,1.417,0.894,1.703,1.142,0.496,0.905,0.839,�k��,5.9,��
2017/10/26,08:10,0.891,1.417,0.895,1.706,1.142,0.495,0.904,0.842,�k��,5.6,��
2017/10/26,08:20,0.892,1.416,0.894,1.705,1.141,0.496,0.905,0.840,�k��,5.7,��
2017/10/26,08:30,0.892,1.416,0.896,1.707,1.143,0.496,0.906,0.841,�k��,4.7,��
2017/10/26,08:40,0.894,1.415,0.894,1.708,1.141,0.495,0.905,0.842,���k��,4.2,��
2017/10/26,08:50,0.893,1.414,0.894,1.707,1.144,0.496,0.902,0.843,�k��,4.0,��
2017/10/26,09:00,0.894,1.414,0.896,1.708,1.143,0.496,0.905,0.842,�k��,3.9,��
2017/10/26,09:10,0.892,1.414,0.895,1.708,1.146,0.495,0.903,0.842,�k��,3.3,��
2017/10/26,09:20,0.896,1.415,0.895,1.708,1.145,0.497,0.904,0.841,�k�k��,3.1,��
2017/10/26,09:30,0.895,1.416,0.896,1.706,1.144,0.497,0.903,0.841,�k�k��,3.2,��
2017/10/26,09:40,0.893,1.414,0.895,1.708,1.145,0.497,0.904,0.843,�k,3.2,��
2017/10/26,09:50,0.895,1.415,0.898,1.707,1.144,0.495,0.905,0.844,�k�k��,3.6,��
2017/10/26,10:00,0.894,1.413,0.897,1.708,1.148,0.494,0.902,0.843,�k�k��,2.3,��
2017/10/26,10:10,0.896,1.414,0.899,1.712,1.144,0.495,0.902,0.843,�k�k��,2.3,��
2017/10/26,10:20,0.894,1.414,0.901,1.706,1.146,0.495,0.903,0.843,�k�k��,2.5,��
2017/10/26,10:30,0.894,1.416,0.897,1.709,1.148,0.496,0.903,0.843,�k��,2.6,��
2017/10/26,10:40,0.896,1.417,0.897,1.709,1.145,0.495,0.903,0.840,�k��,3.5,��
2017/10/26,10:50,0.896,1.418,0.897,1.711,1.147,0.493,0.905,0.840,�k��,3.4,��
2017/10/26,11:00,0.896,1.416,0.898,1.712,1.147,0.495,0.904,0.842,�k�k��,3.7,��
2017/10/26,11:10,0.895,1.417,0.896,1.711,1.145,0.494,0.905,0.842,�k,3.3,��
2017/10/26,11:20,0.894,1.421,0.895,1.711,1.146,0.494,0.901,0.842,�k��,2.9,��
2017/10/26,11:30,0.895,1.417,0.894,1.708,1.147,0.494,0.904,0.843,�k�k��,3.2,��
2017/10/26,11:40,0.899,1.421,0.895,1.709,1.148,0.494,0.903,0.842,�k��,3.3,��
2017/10/26,11:50,0.896,1.420,0.895,1.712,1.149,0.496,0.906,0.844,�k��,3.4,��
2017/10/26,12:00,0.894,1.423,0.897,1.712,1.149,0.496,0.903,0.843,�k��,3.3,��
2017/10/26,12:10,0.897,1.422,0.897,1.715,1.148,0.497,0.904,0.842,���k��,3.8,��
2017/10/26,12:20,0.898,1.424,0.895,1.714,1.150,0.496,0.906,0.841,�k��,3.5,��
2017/10/26,12:30,0.897,1.426,0.895,1.713,1.152,0.498,0.905,0.841,�k��,3.7,��
2017/10/26,12:40,0.898,1.425,0.899,1.713,1.151,0.497,0.905,0.838,�k��,4.3,��
2017/10/26,12:50,0.897,1.424,0.897,1.713,1.152,0.498,0.906,0.842,�k�k��,4.0,��
2017/10/26,13:00,0.897,1.425,0.898,1.712,1.153,0.497,0.906,0.841,���k��,3.9,��
2017/10/26,13:10,0.896,1.423,0.897,1.714,1.149,0.496,0.906,0.840,�k,3.0,��
2017/10/26,13:20,0.897,1.420,0.897,1.714,1.152,0.497,0.905,0.840,�k��,3.0,��
2017/10/26,13:30,0.896,1.425,0.897,1.715,1.151,0.496,0.906,0.839,�k��,2.8,��
2017/10/26,13:40,0.898,1.423,0.898,1.715,1.152,0.496,0.905,0.840,�k�k��,2.9,��
2017/10/26,13:50,0.898,1.423,0.898,1.715,1.152,0.496,0.906,0.841,���k��,2.6,��
2017/10/26,14:00,0.898,1.421,0.897,1.716,1.155,0.496,0.907,0.840,�k��,2.0,��
2017/10/26,14:10,0.898,1.425,0.897,1.718,1.150,0.495,0.907,0.841,�k��,2.6,��
2017/10/26,14:20,0.897,1.425,0.897,1.717,1.153,0.496,0.904,0.840,�k��,2.3,��
2017/10/26,14:30,0.896,1.425,0.897,1.716,1.154,0.497,0.905,0.841,�k��,2.3,��
2017/10/26,14:40,0.900,1.423,0.898,1.715,1.151,0.496,0.907,0.839,�k��,2.6,��
2017/10/26,14:50,0.897,1.424,0.898,1.715,1.152,0.497,0.906,0.840,�k��,2.5,��
2017/10/26,15:00,0.898,1.425,0.900,1.714,1.152,0.497,0.908,0.840,���k��,2.0,��
2017/10/26,15:10,0.898,1.425,0.901,1.716,1.152,0.496,0.908,0.841,�k��,1.7,��
2017/10/26,15:20,0.896,1.424,0.897,1.715,1.154,0.495,0.907,0.839,�k��,1.7,��
2017/10/26,15:30,0.900,1.424,0.897,1.715,1.154,0.498,0.906,0.841,���k��,1.5,��
2017/10/26,15:40,0.899,1.424,0.898,1.716,1.153,0.497,0.907,0.841,���k��,2.3,��
2017/10/26,15:50,0.898,1.425,0.897,1.717,1.155,0.498,0.908,0.843,���k��,1.5,��
2017/10/26,16:00,0.898,1.427,0.898,1.717,1.153,0.499,0.910,0.845,���k��,1.5,��
2017/10/26,16:10,0.897,1.427,0.897,1.715,1.153,0.498,0.908,0.847,�k��,1.5,��
2017/10/26,16:20,0.897,1.428,0.897,1.715,1.152,0.499,0.908,0.841,�k��,0.9,��
2017/10/26,16:30,0.897,1.428,0.896,1.712,1.152,0.500,0.907,0.843,���쓌,0.6,��
2017/10/26,16:40,0.896,1.431,0.897,1.713,1.153,0.498,0.908,0.844,-,CALM,��
2017/10/26,16:50,0.897,1.428,0.899,1.714,1.153,0.500,0.909,0.843,�쓌,0.6,��
2017/10/26,17:00,0.896,1.428,0.900,1.713,1.157,0.499,0.909,0.842,��쓌,1.2,��
2017/10/26,17:10,0.898,1.425,0.899,1.714,1.156,0.499,0.909,0.842,��쓌,1.1,��
2017/10/26,17:20,0.900,1.430,0.899,1.713,1.156,0.499,0.909,0.844,��쐼,1.2,��
2017/10/26,17:30,0.898,1.428,0.898,1.713,1.157,0.499,0.908,0.842,��,1.4,��
2017/10/26,17:40,0.898,1.427,0.899,1.716,1.157,0.499,0.907,0.842,��쐼,1.7,��
2017/10/26,17:50,0.897,1.427,0.900,1.715,1.156,0.499,0.907,0.844,�쐼,1.7,��
2017/10/26,18:00,0.899,1.428,0.898,1.711,1.155,0.500,0.907,0.841,��쐼,1.7,��
2017/10/26,18:10,0.898,1.427,0.897,1.712,1.158,0.497,0.906,0.842,��,1.5,��
2017/10/26,18:20,0.899,1.428,0.900,1.715,1.156,0.500,0.910,0.842,���쐼,0.6,��
2017/10/26,18:30,0.898,1.430,0.899,1.717,1.159,0.498,0.904,0.841,��쐼,2.0,��
2017/10/26,18:40,0.898,1.429,0.898,1.710,1.154,0.498,0.906,0.842,��,1.9,��
2017/10/26,18:50,0.898,1.431,0.899,1.713,1.154,0.499,0.908,0.841,��쐼,1.5,��
2017/10/26,19:00,0.899,1.427,0.899,1.713,1.156,0.498,0.907,0.841,��쐼,1.5,��
2017/10/26,19:10,0.899,1.428,0.898,1.712,1.155,0.498,0.907,0.842,��,1.5,��
2017/10/26,19:20,0.899,1.432,0.899,1.714,1.157,0.499,0.907,0.842,��,2.0,��
2017/10/26,19:30,0.897,1.426,0.900,1.712,1.157,0.497,0.907,0.841,��,2.0,��
2017/10/26,19:40,0.897,1.427,0.900,1.714,1.153,0.499,0.907,0.841,��,1.7,��
2017/10/26,19:50,0.899,1.427,0.897,1.713,1.154,0.497,0.908,0.842,��,2.2,��
2017/10/26,20:00,0.897,1.427,0.899,1.714,1.155,0.499,0.906,0.843,��,2.6,��
2017/10/26,20:10,0.899,1.429,0.898,1.711,1.153,0.497,0.905,0.841,��,2.5,��
2017/10/26,20:20,0.897,1.426,0.898,1.713,1.155,0.498,0.907,0.842,��,2.9,��
2017/10/26,20:30,0.898,1.428,0.899,1.713,1.157,0.498,0.905,0.841,��,3.0,��
2017/10/26,20:40,0.897,1.427,0.899,1.715,1.154,0.497,0.907,0.841,��,3.5,��
2017/10/26,20:50,0.897,1.427,0.900,1.710,1.157,0.496,0.906,0.841,��,3.7,��
2017/10/26,21:00,0.898,1.427,0.898,1.711,1.156,0.497,0.906,0.842,��,3.9,��
2017/10/26,21:10,0.897,1.427,0.898,1.714,1.155,0.499,0.905,0.841,��,4.5,��
2017/10/26,21:20,0.896,1.426,0.897,1.711,1.157,0.499,0.906,0.841,��,4.4,��
2017/10/26,21:30,0.898,1.425,0.897,1.715,1.152,0.497,0.907,0.840,��,3.2,��
2017/10/26,21:40,0.897,1.428,0.899,1.711,1.155,0.499,0.907,0.842,��,4.3,��
2017/10/26,21:50,0.897,1.423,0.896,1.711,1.153,0.497,0.905,0.841,��,3.8,��
2017/10/26,22:00,0.898,1.426,0.899,1.712,1.155,0.496,0.906,0.842,��,4.6,��
2017/10/26,22:10,0.898,1.425,0.898,1.712,1.155,0.497,0.907,0.840,��,4.4,��
2017/10/26,22:20,0.894,1.425,0.899,1.713,1.156,0.497,0.905,0.842,��,4.0,��
2017/10/26,22:30,0.898,1.424,0.897,1.713,1.154,0.496,0.906,0.841,��,4.1,��
2017/10/26,22:40,0.898,1.424,0.896,1.713,1.155,0.498,0.904,0.841,��,4.2,��
2017/10/26,22:50,0.897,1.424,0.898,1.711,1.154,0.496,0.904,0.842,��,3.3,��
2017/10/26,23:00,0.898,1.427,0.900,1.713,1.157,0.497,0.905,0.843,��,2.9,��
2017/10/26,23:10,0.897,1.427,0.898,1.711,1.155,0.497,0.905,0.842,��,2.5,��
2017/10/26,23:20,0.896,1.427,0.898,1.712,1.154,0.496,0.905,0.843,��,4.6,��
2017/10/26,23:30,0.897,1.426,0.899,1.711,1.155,0.498,0.905,0.840,��,3.0,��
2017/10/26,23:40,0.897,1.427,0.898,1.711,1.157,0.497,0.906,0.840,��,3.3,��
2017/10/26,23:50,0.896,1.425,0.897,1.714,1.154,0.497,0.905,0.842,��,3.8,��
